Starlink 30227

operational
NORAD ID: 57505 Int'l Des: 2023-113 Owner: SPXS Country: US Constellation: starlink
LEOCIRCULAR

Starlink 30227について

説明を読み込み中...

リアルタイム位置

3D地球を読み込み中...

次回通過

高度履歴

Altitude vs Time

uPlot chart will show altitude changes over time

軌道要素

1 57505U 23113L 25260.29041697 -.00000010 00000-0 14343-4 0 9996
2 57505 43.0027 226.7620 0001143 267.4932 92.5780 15.02530481117725
Epoch: Sep 17, 2025 • Age: 33 hours

現在のステータス

高度 558.7 km
速度 7.59 km/s
衛星直下点 17.02°N, 149.05°E
打ち上げ日 Aug 7, 2023
運用期間 2.1 years
タイプ internet

技術仕様

分類 Payload
質量 730.00 kg
乾燥質量 700.00 kg
総質量 730.00 kg
長さ 0.30 m
直径 4.10 m
スパン 29.00 m
形状 Box + pan
製造者 SPXS
バスタイプ Starlink V2M
フェーズステータス In Orbit
所有者/国 SPXS/US

大規模コンステレーション

Loading constellations...